DLH75 EDDN-LOWW

Flight info

Callsign DLH75
Flight time 0h 47m
Altitude 29000
Route RODIS1G RODIS L604 LAMSI DCT VENEN VENEN3W
Aircraft A339/H-SADE1E2E3GHIJ3J5M1P2RWXY/LB2D1

Departure

Time 2026-05-06 18:00
Airport Nuremberg Airport (EDDN)

Arrival

Time 2026-05-06 18:48
Airport Vienna International Airport (LOWW)
Time Latitude Longitude Altitude Speed Heading
2026-05-06 17:41 49.49561 11.07459 1028 ft 0 kts 188°
2026-05-06 17:50 49.49569 11.07460 1028 ft 2 kts 189°
2026-05-06 17:50 49.49583 11.07464 1028 ft 2 kts 189°
2026-05-06 17:50 49.49598 11.07468 1028 ft 2 kts 189°
2026-05-06 17:51 49.49612 11.07472 1028 ft 1 kts 189°
2026-05-06 17:51 49.49613 11.07472 1028 ft 2 kts 188°
2026-05-06 17:51 49.49598 11.07485 1028 ft 2 kts 122°
2026-05-06 17:51 49.49598 11.07513 1028 ft 2 kts 66°
2026-05-06 17:52 49.49609 11.07545 1029 ft 2 kts 71°
2026-05-06 17:52 49.49609 11.07561 1029 ft 0 kts 98°
2026-05-06 17:54 49.49607 11.07577 1029 ft 9 kts 98°
2026-05-06 17:54 49.49596 11.07696 1031 ft 11 kts 99°
2026-05-06 17:55 49.49582 11.07820 1034 ft 12 kts 99°
2026-05-06 17:55 49.49569 11.07948 1036 ft 12 kts 99°
2026-05-06 17:55 49.49554 11.08085 1037 ft 14 kts 98°
2026-05-06 17:55 49.49540 11.08244 1037 ft 15 kts 92°
2026-05-06 17:56 49.49585 11.08336 1039 ft 4 kts 29°
2026-05-06 17:56 49.49601 11.08371 1040 ft 5 kts 69°
2026-05-06 17:56 49.49610 11.08487 1042 ft 11 kts 92°
2026-05-06 17:56 49.49599 11.08595 1044 ft 9 kts 99°
2026-05-06 17:57 49.49588 11.08701 1047 ft 10 kts 98°
2026-05-06 17:57 49.49578 11.08814 1050 ft 10 kts 98°
2026-05-06 17:57 49.49569 11.08920 1052 ft 9 kts 97°
2026-05-06 17:57 49.49560 11.09020 1054 ft 9 kts 98°
2026-05-06 17:58 49.49545 11.09146 1054 ft 13 kts 101°
2026-05-06 17:58 49.49533 11.09282 1056 ft 11 kts 88°
2026-05-06 17:58 49.49556 11.09399 1057 ft 11 kts 60°
2026-05-06 17:58 49.49602 11.09505 1057 ft 12 kts 49°
2026-05-06 17:59 49.49669 11.09560 1058 ft 9 kts 353°
2026-05-06 17:59 49.49706 11.09488 1058 ft 10 kts 279°
2026-05-06 17:59 49.49710 11.09451 1058 ft 6 kts 278°
2026-05-06 17:59 49.49753 11.08988 1055 ft 79 kts 278°
2026-05-06 18:00 49.49863 11.07829 1038 ft 139 kts 278°
2026-05-06 18:00 49.50030 11.06134 1192 ft 172 kts 279°
2026-05-06 18:00 49.50216 11.04272 1683 ft 178 kts 278°
2026-05-06 18:00 49.50395 11.02424 2347 ft 176 kts 278°
2026-05-06 18:01 49.50596 11.00565 2914 ft 180 kts 279°
2026-05-06 18:01 49.50821 10.98603 3326 ft 194 kts 278°
2026-05-06 18:01 49.51029 10.96458 3686 ft 213 kts 277°
2026-05-06 18:01 49.51432 10.94176 4028 ft 234 kts 303°
2026-05-06 18:02 49.52645 10.92487 4426 ft 250 kts 339°
2026-05-06 18:02 49.54369 10.92037 4892 ft 262 kts
2026-05-06 18:02 49.56260 10.92254 5388 ft 279 kts
2026-05-06 18:02 49.58195 10.92477 6086 ft 286 kts
2026-05-06 18:03 49.60169 10.92642 6929 ft 286 kts
2026-05-06 18:03 49.62141 10.92732 7809 ft 285 kts
2026-05-06 18:03 49.64121 10.92787 8655 ft 285 kts
2026-05-06 18:03 49.66071 10.92974 9439 ft 287 kts 12°
2026-05-06 18:04 49.67886 10.94260 10194 ft 292 kts 36°
2026-05-06 18:04 49.69238 10.96614 10806 ft 304 kts 59°
2026-05-06 18:04 49.69880 10.99786 11136 ft 326 kts 85°
2026-05-06 18:04 49.69759 11.03337 11465 ft 344 kts 94°
2026-05-06 18:05 49.69530 11.07093 11921 ft 358 kts 94°
2026-05-06 18:05 49.69310 11.10925 12605 ft 363 kts 93°
2026-05-06 18:05 49.69100 11.14816 13317 ft 367 kts 92°
2026-05-06 18:05 49.68814 11.18713 13999 ft 373 kts 99°
2026-05-06 18:06 49.68087 11.22581 14623 ft 381 kts 109°
2026-05-06 18:06 49.66907 11.26349 14944 ft 398 kts 117°
2026-05-06 18:06 49.65553 11.30102 15417 ft 408 kts 118°
2026-05-06 18:06 49.64154 11.33904 16008 ft 413 kts 118°
2026-05-06 18:07 49.62741 11.37773 16667 ft 417 kts 117°
2026-05-06 18:07 49.61312 11.41716 17317 ft 421 kts 117°
2026-05-06 18:07 49.59903 11.45625 17901 ft 427 kts 117°
2026-05-06 18:07 49.58460 11.49637 18514 ft 432 kts 116°
2026-05-06 18:08 49.57094 11.53768 18984 ft 434 kts 112°
2026-05-06 18:08 49.55896 11.58006 19186 ft 435 kts 109°
2026-05-06 18:08 49.54855 11.62387 19191 ft 434 kts 107°
2026-05-06 18:08 49.53862 11.66794 19189 ft 434 kts 107°
2026-05-06 18:09 49.52886 11.71140 19191 ft 434 kts 107°
2026-05-06 18:09 49.51901 11.75498 19194 ft 434 kts 107°
2026-05-06 18:09 49.50904 11.79880 19196 ft 434 kts 107°
2026-05-06 18:09 49.49900 11.84269 19201 ft 434 kts 107°
2026-05-06 18:10 49.48901 11.88619 19206 ft 434 kts 107°
2026-05-06 18:10 49.47905 11.92943 19205 ft 434 kts 107°
2026-05-06 18:10 49.46888 11.97357 19396 ft 441 kts 107°
2026-05-06 18:10 49.45866 12.01772 20053 ft 443 kts 107°
2026-05-06 18:11 49.44824 12.06258 20723 ft 445 kts 107°
2026-05-06 18:11 49.43787 12.10717 21280 ft 449 kts 107°
2026-05-06 18:11 49.42735 12.15235 21799 ft 453 kts 107°
2026-05-06 18:11 49.41665 12.19817 22298 ft 458 kts 106°
2026-05-06 18:12 49.40596 12.24394 22798 ft 462 kts 106°
2026-05-06 18:12 49.39514 12.29012 23301 ft 466 kts 106°
2026-05-06 18:12 49.38409 12.33713 23801 ft 470 kts 106°
2026-05-06 18:12 49.37299 12.38425 24316 ft 473 kts 106°
2026-05-06 18:13 49.36193 12.43115 24863 ft 474 kts 106°
2026-05-06 18:13 49.35062 12.47872 25486 ft 474 kts 107°
2026-05-06 18:13 49.33672 12.52479 25994 ft 480 kts 116°
2026-05-06 18:13 49.31827 12.56732 26435 ft 487 kts 125°
2026-05-06 18:14 49.29569 12.60595 26873 ft 492 kts 131°
2026-05-06 18:14 49.27169 12.64296 27300 ft 496 kts 133°
2026-05-06 18:14 49.24688 12.68053 27706 ft 499 kts 133°
2026-05-06 18:14 49.22222 12.71801 28089 ft 502 kts 133°
2026-05-06 18:15 49.19774 12.75554 28465 ft 505 kts 132°
2026-05-06 18:15 49.17289 12.79385 28859 ft 508 kts 132°
2026-05-06 18:15 49.14818 12.83202 29179 ft 510 kts 132°
2026-05-06 18:15 49.12318 12.87054 29218 ft 510 kts 132°
2026-05-06 18:16 49.07345 12.94698 29218 ft 509 kts 132°
2026-05-06 18:16 49.02374 13.02318 29216 ft 510 kts 133°
2026-05-06 18:17 48.97374 13.09953 29218 ft 511 kts 132°
2026-05-06 18:17 48.92359 13.17594 29214 ft 512 kts 133°
2026-05-06 18:18 48.87309 13.25262 29210 ft 512 kts 133°
2026-05-06 18:18 48.82630 13.33213 29192 ft 503 kts 115°
2026-05-06 18:19 48.81432 13.38082 29211 ft 492 kts 97°
2026-05-06 18:19 48.80847 13.43152 29225 ft 492 kts 94°
2026-05-06 18:19 48.79696 13.53394 29217 ft 492 kts 95°
2026-05-06 18:20 48.78413 13.63518 29220 ft 494 kts 96°
2026-05-06 18:20 48.77027 13.73752 29218 ft 496 kts 97°
2026-05-06 18:21 48.75610 13.83929 29223 ft 496 kts 97°
2026-05-06 18:21 48.74175 13.94146 29226 ft 497 kts 97°
2026-05-06 18:22 48.72742 14.04286 29235 ft 495 kts 97°
2026-05-06 18:22 48.71293 14.14475 29238 ft 497 kts 97°
2026-05-06 18:23 48.69838 14.24631 29162 ft 494 kts 97°
2026-05-06 18:23 48.69110 14.29677 28251 ft 489 kts 97°
2026-05-06 18:23 48.68398 14.34611 26825 ft 489 kts 98°
2026-05-06 18:24 48.67677 14.39608 25385 ft 486 kts 98°
2026-05-06 18:24 48.66968 14.44496 24202 ft 477 kts 99°
2026-05-06 18:24 48.66264 14.49323 23107 ft 466 kts 99°
2026-05-06 18:24 48.65576 14.54018 22008 ft 457 kts 99°
2026-05-06 18:25 48.64899 14.58632 20899 ft 448 kts 100°
2026-05-06 18:25 48.64239 14.63122 19804 ft 440 kts 100°
2026-05-06 18:25 48.63582 14.67574 18743 ft 431 kts 102°
2026-05-06 18:25 48.62942 14.71893 18060 ft 420 kts 102°
2026-05-06 18:26 48.62306 14.76174 17687 ft 415 kts 102°
2026-05-06 18:26 48.61681 14.80365 17301 ft 409 kts 102°
2026-05-06 18:26 48.61060 14.84509 17208 ft 396 kts 102°
2026-05-06 18:26 48.60467 14.88455 17205 ft 381 kts 102°
2026-05-06 18:27 48.59893 14.92269 17207 ft 373 kts 102°
2026-05-06 18:27 48.59317 14.96108 17209 ft 373 kts 102°
2026-05-06 18:27 48.58748 14.99891 17209 ft 372 kts 102°
2026-05-06 18:27 48.58170 15.03708 17210 ft 373 kts 102°
2026-05-06 18:28 48.57588 15.07507 17169 ft 372 kts 102°
2026-05-06 18:28 48.57011 15.11262 16880 ft 369 kts 102°
2026-05-06 18:28 48.56430 15.15056 16447 ft 368 kts 102°
2026-05-06 18:28 48.55861 15.18765 16048 ft 367 kts 102°
2026-05-06 18:29 48.55287 15.22515 15667 ft 364 kts 102°
2026-05-06 18:29 48.54721 15.26201 15285 ft 362 kts 102°
2026-05-06 18:29 48.54156 15.29877 14904 ft 360 kts 102°
2026-05-06 18:29 48.53588 15.33560 14531 ft 358 kts 102°
2026-05-06 18:30 48.53026 15.37191 14155 ft 356 kts 102°
2026-05-06 18:30 48.52474 15.40797 13722 ft 352 kts 101°
2026-05-06 18:30 48.52044 15.44363 12891 ft 349 kts 97°
2026-05-06 18:30 48.51762 15.47967 12098 ft 345 kts 94°
2026-05-06 18:31 48.51564 15.51509 11329 ft 340 kts 94°
2026-05-06 18:31 48.51371 15.55058 10542 ft 337 kts 94°
2026-05-06 18:31 48.51179 15.58551 10129 ft 335 kts 94°
2026-05-06 18:31 48.50986 15.62003 9769 ft 333 kts 94°
2026-05-06 18:32 48.50789 15.65480 9485 ft 329 kts 95°
2026-05-06 18:32 48.50599 15.68806 9127 ft 314 kts 95°
2026-05-06 18:32 48.50413 15.72017 8828 ft 297 kts 95°
2026-05-06 18:32 48.50237 15.75050 8589 ft 289 kts 95°
2026-05-06 18:33 48.50063 15.78023 8446 ft 285 kts 95°
2026-05-06 18:33 48.49887 15.81004 8436 ft 280 kts 95°
2026-05-06 18:33 48.49718 15.83891 8431 ft 278 kts 95°
2026-05-06 18:33 48.49546 15.86800 8440 ft 279 kts 95°
2026-05-06 18:34 48.49376 15.89670 8438 ft 278 kts 95°
2026-05-06 18:34 48.49201 15.92594 8433 ft 279 kts 95°
2026-05-06 18:34 48.49028 15.95490 8440 ft 278 kts 95°
2026-05-06 18:34 48.48856 15.98340 8327 ft 275 kts 95°
2026-05-06 18:35 48.48680 16.01250 8034 ft 276 kts 95°
2026-05-06 18:35 48.48507 16.04095 7795 ft 275 kts 95°
2026-05-06 18:35 48.48301 16.06930 7457 ft 267 kts 98°
2026-05-06 18:35 48.47982 16.09592 7195 ft 257 kts 103°
2026-05-06 18:36 48.47543 16.12175 6797 ft 253 kts 107°
2026-05-06 18:36 48.46983 16.14674 6512 ft 249 kts 110°
2026-05-06 18:36 48.46389 16.17064 6427 ft 243 kts 110°
2026-05-06 18:36 48.45691 16.19415 6423 ft 249 kts 128°
2026-05-06 18:37 48.44313 16.20915 6423 ft 246 kts 166°
2026-05-06 18:37 48.42623 16.20889 6442 ft 246 kts 198°
2026-05-06 18:37 48.41092 16.19770 6469 ft 245 kts 211°
2026-05-06 18:37 48.39629 16.18488 6452 ft 243 kts 213°
2026-05-06 18:38 48.38438 16.16730 6433 ft 239 kts 238°
2026-05-06 18:38 48.37640 16.14559 6439 ft 239 kts 244°
2026-05-06 18:38 48.36933 16.12336 6434 ft 229 kts 245°
2026-05-06 18:38 48.36282 16.10244 6424 ft 217 kts 245°
2026-05-06 18:39 48.35647 16.08189 6367 ft 214 kts 245°
2026-05-06 18:39 48.35010 16.06188 6107 ft 215 kts 238°
2026-05-06 18:39 48.33958 16.04611 5818 ft 217 kts 211°
2026-05-06 18:40 48.31076 16.04516 5446 ft 217 kts 156°
2026-05-06 18:40 48.29752 16.05568 5454 ft 212 kts 147°
2026-05-06 18:40 48.28610 16.06859 5442 ft 198 kts 137°
2026-05-06 18:40 48.27609 16.08250 5440 ft 197 kts 136°
2026-05-06 18:41 48.26653 16.09732 5438 ft 197 kts 128°
2026-05-06 18:41 48.25861 16.11421 5437 ft 198 kts 120°
2026-05-06 18:41 48.25247 16.13250 5439 ft 198 kts 114°
2026-05-06 18:41 48.24701 16.15151 5441 ft 197 kts 113°
2026-05-06 18:42 48.24156 16.17027 5440 ft 197 kts 114°
2026-05-06 18:42 48.23590 16.18896 5440 ft 197 kts 115°
2026-05-06 18:42 48.23003 16.20758 5327 ft 198 kts 115°
2026-05-06 18:42 48.22401 16.22613 5074 ft 198 kts 116°
2026-05-06 18:43 48.21796 16.24449 4810 ft 198 kts 116°
2026-05-06 18:43 48.21182 16.26299 4541 ft 199 kts 115°
2026-05-06 18:43 48.20564 16.28154 4269 ft 198 kts 115°
2026-05-06 18:43 48.19957 16.29975 3993 ft 191 kts 115°
2026-05-06 18:44 48.19378 16.31717 3736 ft 188 kts 115°
2026-05-06 18:44 48.18791 16.33490 3485 ft 189 kts 115°
2026-05-06 18:44 48.18219 16.35222 3238 ft 187 kts 114°
2026-05-06 18:44 48.17640 16.36980 2990 ft 186 kts 115°
2026-05-06 18:45 48.17074 16.38701 2740 ft 186 kts 114°
2026-05-06 18:45 48.16512 16.40410 2490 ft 181 kts 114°
2026-05-06 18:45 48.15968 16.42068 2245 ft 175 kts 114°
2026-05-06 18:45 48.15440 16.43679 2007 ft 169 kts 114°
2026-05-06 18:46 48.14931 16.45234 1788 ft 162 kts 114°
2026-05-06 18:46 48.14446 16.46726 1570 ft 157 kts 114°
2026-05-06 18:46 48.13988 16.48162 1336 ft 153 kts 114°
2026-05-06 18:46 48.13517 16.49572 1101 ft 149 kts 116°
2026-05-06 18:47 48.13048 16.50918 908 ft 143 kts 115°
2026-05-06 18:47 48.12623 16.52257 729 ft 143 kts 112°
2026-05-06 18:47 48.12204 16.53588 596 ft 141 kts 114°
2026-05-06 18:47 48.11812 16.54795 591 ft 107 kts 116°
2026-05-06 18:48 48.11574 16.55535 591 ft 65 kts 117°
2026-05-06 18:48 48.11502 16.55988 595 ft 28 kts 83°
2026-05-06 18:48 48.11508 16.56049 595 ft 0 kts 78°
2026-05-06 18:48 48.11509 16.56053 596 ft 0 kts 77°
2026-05-06 18:49 48.11518 16.56099 596 ft 5 kts 66°
2026-05-06 18:49 48.11544 16.56134 597 ft 4 kts 27°
2026-05-06 18:49 48.11578 16.56161 598 ft 6 kts 27°
2026-05-06 18:49 48.11613 16.56197 598 ft 6 kts 41°
2026-05-06 18:50 48.11625 16.56228 599 ft 0 kts 72°
2026-05-06 18:50 48.11663 16.56295 600 ft 6 kts 23°
2026-05-06 18:50 48.11706 16.56329 601 ft 7 kts 38°
2026-05-06 18:50 48.11733 16.56383 603 ft 5 kts 72°
2026-05-06 18:51 48.11733 16.56428 605 ft 5 kts 105°
2026-05-06 18:51 48.11695 16.56595 608 ft 19 kts 118°
2026-05-06 18:51 48.11670 16.56643 610 ft 4 kts 120°
2026-05-06 18:51 48.11657 16.56679 611 ft 2 kts 108°
2026-05-06 18:52 48.11659 16.56701 611 ft 1 kts 65°
2026-05-06 18:52 48.11666 16.56721 612 ft 2 kts 67°
2026-05-06 18:52 48.11684 16.56777 612 ft 5 kts 56°
2026-05-06 18:52 48.11711 16.56814 612 ft 5 kts 28°
2026-05-06 18:53 48.11714 16.56817 612 ft 0 kts 27°